Regional Weather Roundup
Issued by NWS

Home | Current Version | Previous Version | Graphics & Text | Print | Product List | Glossary On
Versions: 1 2 3 4 5 6 7 8 9 10 11 12 13 14 15 16 17 18 19 20 21 22 23 24 25 26 27 28 29 30 31 32 33 34 35 36 37 38 39 40 41 42 43 44 45 46 47 48 49 50
000
ASUS45 KTFX 271804
RWRMT
MONTANA HOURLY WEATHER ROUNDUP
NATIONAL WEATHER SERVICE GREAT FALLS MT
1204 PM MDT WED AUG 27 2014

NOTE: "FAIR" INDICATES FEW OR NO CLOUDS BELOW 12000 FEET WITH NO
SIGNIFICANT WEATHER AND/OR OBSTRUCTIONS TO VISIBILITY.

* THESE STATIONS ARE NOT UNDER NWS QUALITY CONTROL. THEY DO NOT
   REPORT WEATHER SUCH AS PRECIPITATION OR FOG.

MTZ001>007-043-271900-
WEST OF THE DIVIDE
CITY           SKY/WX    TMP DP  RH WIND       PRES   REMARKS
KALISPELL      SUNNY     72  48  43 VRB5      30.10F
MISSOULA       SUNNY     70  46  42 S5        30.16F
BUTTE          SUNNY     68  39  35 N5        30.23F
MULLAN PASS    SUNNY     64  39  40 CALM      30.26S
* LINCOLN      N/A       69  47  46 SW5G10     N/A
* LOOKOUT PASS N/A       71  42  35 SE7G12     N/A
* POLSON       N/A       76  51  42 S3G8       N/A
* RONAN APT    SUNNY     75  48  39 N/A        N/A
* SEELEY LAKE  N/A       69  46  44 W3         N/A
* THOMP F APT  SUNNY     68  43  40 S7         N/A
$$

MTZ008-052>055-271900-
SOUTHWEST MONTANA
CITY           SKY/WX    TMP DP  RH WIND       PRES   REMARKS
BOZEMAN        SUNNY     72  48  43 CALM      30.17F
DILLON         SUNNY     72  46  40 VRB5      30.20F
W YELLOWSTONE  SUNNY     63  41  45 CALM      30.29F
* THREE FORKS  SUNNY     70  70 100 N/A        N/A
* BOULDER HILL N/A       68  38  33 S6G11      N/A
* MONIDA PASS  N/A       64  37  37 W13        N/A
* RAYNOLDS PAS N/A       66  49  54 SW4G9      N/A
* WHITEHALL    N/A       72  49  44 SW7G12     N/A
* WISE RIVER   N/A       62  45  54 NW4        N/A
$$

MTZ009>010-012-014-046-048-049-054-271900-
EAST SLOPES AND CENTRAL MONTANA
CITY           SKY/WX    TMP DP  RH WIND       PRES   REMARKS
CUT BANK       SUNNY     81  46  29 W10       30.04F
GREAT FALLS    SUNNY     77  45  32 W9        30.06F
HELENA         SUNNY     75  48  39 N7        30.12F
MALMSTROM AFB  SUNNY     75  45  34 W12       30.07F
* CONRAD       SUNNY     81  46  29 W10G15     N/A
* EAST GLACIER N/A       72  46  40 W14G26     N/A
* MONARCH      N/A       68  34  28 SW15G22    N/A
* PENDROY      N/A       79  45  30 NW4G13     N/A
* ROGERS PASS  N/A       65  42  43 SE11G20    N/A
* SAINT MARY   N/A       73  47  40 S8G19      N/A
* SWEET GRASS  N/A       77  46  33 NW15G20    N/A
$$

MTZ011-013-016-021-035-040-045-047-050-051-271900-
NORTH CENTRAL MONTANA
CITY           SKY/WX    TMP DP  RH WIND       PRES   REMARKS
HAVRE          SUNNY     79  48  34 SW18      29.98F
LEWISTOWN      SUNNY     79  45  30 VRB3      30.09S
* CHESTER      N/A       75  46  36 W8         N/A
* DENTON       N/A       78  40  26 W16G21     N/A
* GEYSER       N/A       76  39  26 NW17G24    N/A
* JUDITH GAP   N/A       75  42  31 SW13G20    N/A
* LOMA         N/A       77  49  37 SW8        N/A
$$

MTZ017>020-022>027-061-062-271900-
NORTHEAST MONTANA
CITY           SKY/WX    TMP DP  RH WIND       PRES   REMARKS
GLASGOW        SUNNY     77  55  47 S7        29.99F
GLENDIVE       SUNNY     75  61  62 SE8       30.07F
JORDAN         SUNNY     81  54  39 SW7       30.01F
SIDNEY         SUNNY     75  59  58 S10       30.06F
WOLF POINT     SUNNY     82  55  40 S6        30.00F HI  81
* BEAVER HILL  N/A       76  50  40 S6G13      N/A
* CIRCLE       N/A       81  58  46 SW10       N/A   HI  81
* LINDSAY DVD  N/A       75  58  56 SE12G17    N/A
* NAVAJO       N/A       78  50  38 SW16       N/A
* SACO         N/A       75  55  50 SE6        N/A
$$

MTZ028>042-056>058-271900-
SOUTHCENTRAL AND SOUTHEAST MONTANA
CITY           SKY/WX    TMP DP  RH WIND       PRES   REMARKS
BAKER          SUNNY     75  54  48 S10       30.11F
BILLINGS       SUNNY     75  54  48 SW8       30.09F
LIVINGSTON     SUNNY     79  41  26 SW13      30.13F
MILES CITY     SUNNY     79  54  42 SE9       30.05F
* LAUREL APT   SUNNY     75  48  39 S5         N/A
* ROUNDUP APT  SUNNY     73  54  51 S5         N/A
* ALZADA       N/A       73  57  57 E7G13      N/A
* HYSHAM       N/A       79  45  30 NW7        N/A
* LAME DEER    N/A       74  50  43 SE7        N/A
* REED POINT   N/A       77  45  32 SW2G8      N/A
* ROSCOE HILL  N/A       74  31  21 N5         N/A
$$

REGIONAL REPORTS...DAKOTAS
CITY           SKY/WX    TMP DP  RH WIND       PRES   REMARKS
WILLISTON      SUNNY     77  57  50 SE8       30.06F
DICKINSON      SUNNY     72  57  59 S8        30.10F
BEACH          N/A       73  57  57 S12       30.10F
CROSBY         SUNNY     77  54  45 S13       30.05F
TIOGA          SUNNY     73  57  57 S13       30.11F
WATFORD CITY   SUNNY     75  55  50 S10G17    30.06F
BISMARCK       SUNNY     72  57  59 S6        30.14F
GRAND FORKS    PTCLDY    72  54  53 S12       30.16F
FARGO          SUNNY     72  57  59 VRB3      30.17F
BUFFALO SD     PTCLDY    75  57  54 S14       30.06F
RAPID CITY     PTCLDY    72  61  68 NE5       30.14S
$$

REGIONAL REPORTS...WYOMING/IDAHO/WASHINGTON
CITY           SKY/WX    TMP DP  RH WIND       PRES   REMARKS
GILLETTE       CLOUDY    75  55  50 E8        30.14F
SHERIDAN       PTSUNNY   73  50  44 CALM      30.11F
CODY           PTSUNNY   72  45  38 S7        30.17F
YELLOWSTONE LA SUNNY     55  46  72 SE5       30.37F
SALMON         SUNNY     64  46  52 N3        30.19F
MULLAN PASS    SUNNY     64  39  40 CALM      30.26S
SAND POINT     SUNNY     72  54  53 SE5       30.07F
SPOKANE        SUNNY     81  43  26 S8        30.07S

$$




USA.gov is the U.S. government's official web portal to all federal, state and local government web resources and services.